PEGASUS DEB, 39323

Orbit data source: Space-Track

PEGASUS DEB, 39323 is space debris in LEO originally from a launch on Thu, 19 May 1994 UTC launched from the Air Force Western Test Range (AFWTR). Debris objects in space refer to the collection of defunct objects orbiting the Earth. Examples of debris include non-operational satellites, rocket bodies, and fragments generated from explosions, collisions, or faulty payload assembly.

Loading next visibility...
Identifier
39323, 1994-029AFJ
Orbit
LEO
Country
Flag of USUS
Related business
Manufacturer
Unknown
Mission
Spacecraft
Bus & Motor
Unknown
Mass
Unknown
Launch date (UTC)
1994-05-19 (32 years ago)
Launch vehicle
Unknown
Launch site
Air Force Western Test Range (AFWTR)
Object type
Payload
Rocket body
Debris
Shape & HBR
Unknown shape, 0.1 m
Radar Cross Section
Small (<0.1 m²)

Expand to show TLE details & history
Last TLE update: 1 week ago

TLE from 1 week ago
0 PEGASUS DEB
1 39323U 94029AFJ 26222.53444077  .00002753  00000-0  33502-3 0  9995
2 39323  81.9865 295.2358 0163661 165.7149 194.8772 14.73935646749500
Epoch: 2026-08-10T12:49Z
TLE epoch observation values (Epoch: 2026-08-10T12:49:35.682Z)
Latitude
-0.0001°
Longitude
143.82141°
Altitude
762.832 km
Speed
7.414 km/s
True Right ascension
19h 40m 56s
True Declination
0° 00' 00"
Sunlit
Object was in full shadow at epoch
Visualization orbit readout
Latitude
Unknown
Longitude
Unknown
Altitude
Unknown
Speed
Unknown
Apparent Right ascension
Unknown
Apparent Declination
Unknown
Sunlit
N/A
Visualization observer readout
Local Sidereal Time
16:36:06
Azimuth
Unknown
Elevation
Unknown
Doppler factor
Unknown
Orbital elements
Apogee altitude
760.536 km
Perigee altitude
530.634 km
Semi-major axis
7,023.722 km
Eccentricity
0.01637
Inclination
81.9865°
RAAN
295.2358°
Arg. of periapsis
165.7149°
True anomaly
194.40504°
Mean anomaly
194.8772°
Eccentric anomaly
194.6402°
Mean motion
3.68716 °/min
Orbital period
97.64 mins
BSTAR
0.00033502
Loading maneuver chart data...
Computing Atmospheric mass density...

Documentation

Showing up to 5 results
|